This is the latest recevied weather packets stored in our database for station/object KA3WVU. If no packets are shown the sender has not sent any weather packets the latest 10 day(s).
| Time | Temp. | Humidity | Pressure | Rain* | Wind** | Luminosity | Snow |
|---|---|---|---|---|---|---|---|
| 1777837971 | 10.56° C | 45% | 1012.7 hPa | 0 mm | - | 449 W/m² | - |
| 1777837669 | 11.11° C | 42% | 1012.8 hPa | 0 mm | - | 107 W/m² | - |
| 1777837364 | 10.56° C | 43% | 1012.8 hPa | 0 mm | - | 494 W/m² | - |
| 1777837061 | 10° C | 44% | 1013 hPa | 0 mm | - | 153 W/m² | - |
| 1777836757 | 10° C | 43% | 1012.9 hPa | 0 mm | - | 130 W/m² | - |
| 1777836453 | 10.56° C | 44% | 1013 hPa | 0 mm | - | 126 W/m² | - |
| 1777836148 | 11.11° C | 43% | 1013 hPa | 0 mm | - | 130 W/m² | - |
| 1777835845 | 11.11° C | 44% | 1013 hPa | 0 mm | - | 177 W/m² | - |
| 1777835542 | 10° C | 43% | 1013.2 hPa | 0 mm | - | 276 W/m² | - |
| 1777835239 | 10.56° C | 45% | 1013.1 hPa | 0 mm | - | 126 W/m² | - |
| 1777834935 | 10.56° C | 42% | 1013.1 hPa | 0 mm | - | 209 W/m² | - |
| 1777834633 | 10.56° C | 44% | 1013.3 hPa | 0 mm | - | 173 W/m² | - |
| 1777834328 | 10° C | 43% | 1013.4 hPa | 0 mm | - | 296 W/m² | - |
| 1777834023 | 10.56° C | 45% | 1013.4 hPa | 0 mm | - | 131 W/m² | - |
| 1777833720 | 10.56° C | 41% | 1013.3 hPa | 0 mm | - | 600 W/m² | - |
| 1777833416 | 9.44° C | 45% | 1013.6 hPa | 0 mm | - | 165 W/m² | - |
| 1777833113 | 10° C | 44% | 1013.9 hPa | 0 mm | - | 154 W/m² | - |
| 1777832811 | 10.56° C | 43% | 1013.4 hPa | 0 mm | - | 196 W/m² | - |
| 1777832510 | 10.56° C | 44% | 1013.8 hPa | 0 mm | - | 508 W/m² | - |
| 1777832206 | 10.56° C | 42% | 1013.6 hPa | 0 mm | - | 144 W/m² | - |
| 1777831903 | 10.56° C | 42% | 1013.5 hPa | 0 mm | - | 652 W/m² | - |
| 1777831600 | 11.11° C | 41% | 1013.4 hPa | 0 mm | - | 196 W/m² | - |
| 1777831298 | 10.56° C | 42% | 1013.8 hPa | 0 mm | - | 742 W/m² | - |
| 1777830995 | 10.56° C | 43% | 1013.6 hPa | 0 mm | - | 240 W/m² | - |
| 1777830692 | 10° C | 46% | 1013.6 hPa | 0 mm | - | 156 W/m² | - |
* Rain latest hour (hover to see other rain measurements)
** Current wind speed in m/s (hover to see current wind gust speed)